Wind_Speed
27 26 26 26 25 24 23 23 22 21 21 21 20 20 20 20 20 20 20 20 20 20 19 18 18 17 16 15 15 14 14 14 14 13 13 13 13 13 13 14 13 12
28 27 26 25 25 25 25 24 23 22 21 21 21 20 19 20 20 21 21 21 21 21 20 20 19 19 18 17 16 16 15 15 15 14 14 14 14 13 13 14 14 13
29 28 28 27 26 27 26 25 24 23 22 21 21 21 20 19 20 21 22 22 22 21 21 21 20 20 20 18 17 17 17 17 17 15 15 15 14 14 14 14 15 15
31 30 29 28 27 26 26 25 25 24 24 23 22 22 21 20 20 21 22 23 22 22 22 22 21 21 20 19 19 18 18 18 18 17 16 15 15 15 15 15 15 15
34 32 30 29 27 26 26 26 26 26 25 25 23 22 22 22 21 21 22 23 23 23 22 22 22 22 21 20 20 19 19 19 19 18 17 16 16 16 16 16 16 16
34 33 31 29 28 27 27 28 28 27 26 26 24 22 22 23 23 22 22 23 23 23 23 23 23 22 21 21 21 20 20 19 19 20 19 18 17 17 16 16 17 17
34 34 33 31 29 29 29 28 28 28 27 26 25 24 23 23 24 24 23 23 23 23 23 23 23 23 22 21 21 21 21 20 20 21 21 20 19 18 18 17 17 18
34 33 33 32 31 30 30 29 28 29 29 27 26 26 25 25 24 24 24 24 23 23 23 23 23 23 22 22 22 22 21 21 21 22 22 21 20 20 19 19 18 19
33 33 33 33 33 32 31 31 29 29 29 28 28 26 26 26 25 24 24 25 25 24 24 23 23 24 23 23 23 23 23 22 22 22 23 23 22 22 21 21 20 20
34 34 34 35 35 34 33 33 31 30 30 30 29 28 26 26 26 26 25 26 26 26 25 25 25 25 25 24 25 25 24 24 23 23 24 24 24 23 23 23 22 22
35 35 35 36 36 35 34 34 33 32 31 30 30 30 29 28 27 27 27 27 28 28 27 27 27 27 27 26 25 25 26 25 24 24 24 24 25 25 24 24 24 24
36 36 36 36 36 35 34 35 35 33 32 31 31 31 31 30 29 29 29 29 29 29 29 29 28 28 28 27 26 26 26 26 26 25 25 25 25 25 25 25 26 26
35 36 35 35 35 34 34 33 34 34 32 31 30 30 31 31 30 30 30 30 30 30 30 30 30 29 29 29 28 27 27 27 26 26 26 25 26 26 26 27 27 27
35 34 35 35 34 34 34 33 33 33 32 31 30 29 30 30 30 30 29 29 29 29 29 29 30 30 29 29 29 28 27 27 27 27 26 26 26 26 27 28 28 28
32 32 32 33 33 33 34 34 33 32 32 31 30 29 28 29 29 29 28 28 28 28 29 29 29 30 30 30 30 29 28 27 27 27 28 27 26 27 27 28 29 28
31 30 29 30 32 33 33 33 32 32 31 32 31 29 28 27 28 28 28 27 27 28 28 29 30 31 32 34 33 31 29 28 28 28 28 28 27 27 27 27 28 29
30 30 29 30 32 32 32 30 30 30 30 31 31 30 28 27 27 28 28 28 28 28 29 30 31 32 34 37 37 35 32 29 28 27 28 28 28 27 27 27 28 29
29 30 30 30 31 32 31 29 29 29 29 29 30 30 29 28 28 29 29 29 29 29 30 31 31 32 36 39 40 41 38 32 28 27 27 28 29 29 28 28 28 29
30 30 31 30 30 31 30 28 28 30 30 30 30 30 30 30 30 30 30 31 30 30 30 31 31 32 36 40 41 43 44 39 32 27 27 28 29 30 30 30 29 29
29 30 31 30 29 29 29 29 30 32 32 31 30 30 31 32 31 30 30 31 31 30 30 30 31 32 35 39 42 43 45 45 39 30 27 28 30 31 31 31 32 31
29 29 28 27 27 28 29 31 31 31 32 30 28 29 30 30 30 30 30 31 31 30 30 30 31 32 34 37 42 44 44 46 44 36 30 29 29 31 31 32 33 33
28 27 27 27 27 28 29 30 30 30 29 28 27 26 27 28 28 29 29 30 31 30 31 32 32 33 35 36 40 42 43 46 46 39 32 31 30 31 32 32 33 34
27 27 27 27 28 29 30 30 29 27 27 27 27 26 27 28 29 29 30 31 32 32 32 33 32 33 36 36 38 41 43 46 47 39 32 32 31 30 32 34 35 35
27 27 26 27 28 28 28 27 27 26 26 27 27 27 27 27 28 29 30 31 32 33 34 33 32 32 36 37 38 40 43 47 46 37 31 32 32 31 32 34 35 37
26 27 27 27 27 26 25 25 25 25 25 26 27 27 27 27 27 28 29 30 31 32 34 35 33 32 35 37 38 39 43 47 44 35 32 33 32 31 32 33 35 38
26 26 27 26 25 25 24 24 25 25 25 26 27 26 26 26 27 27 28 28 29 30 32 35 34 33 35 38 39 40 43 47 43 35 34 35 34 32 32 32 36 39
Wind_Direction
204 203 203 205 207 208 209 209 210 210 210 210 210 211 211 211 210 207 206 206 205 207 209 209 208 208 208 207 208 211 211 208 205 200 195 198 205 212 211 206 210 218
202 202 202 203 205 206 208 210 211 212 213 213 214 213 213 211 209 206 205 203 203 205 206 207 207 207 207 208 208 211 213 212 209 204 197 198 205 212 213 209 209 213
200 201 202 202 204 205 207 209 211 213 215 214 214 213 213 211 208 206 204 203 202 203 204 205 206 207 207 207 207 210 213 213 212 207 200 199 203 210 213 211 210 209
200 201 203 204 205 206 206 207 209 212 214 214 213 212 212 212 209 206 204 204 203 202 203 204 205 206 207 206 206 210 212 213 213 208 203 201 201 208 214 211 211 209
199 200 202 204 205 206 205 206 209 211 212 212 211 211 211 210 209 207 205 204 203 204 204 204 204 205 206 205 206 209 210 212 212 208 205 204 200 204 212 212 211 211
198 199 201 202 203 205 205 206 207 209 211 210 209 209 209 209 208 208 206 205 204 205 206 205 204 204 204 204 206 208 210 211 210 207 206 206 203 203 207 210 212 212
197 199 200 201 202 204 205 206 206 208 210 209 207 208 208 208 208 207 206 206 206 207 206 206 204 204 203 203 206 208 209 211 210 206 206 206 205 204 205 208 211 211
197 198 199 200 202 204 205 206 206 208 209 207 206 208 208 208 208 207 206 205 206 207 206 206 204 204 203 203 206 208 208 210 210 206 205 207 207 206 205 206 209 210
197 198 199 200 203 205 206 206 206 208 208 207 207 207 207 208 208 206 205 204 205 206 205 205 204 204 205 205 206 208 209 210 209 206 205 206 209 209 207 206 208 209
196 197 199 201 203 206 207 207 207 208 207 207 208 208 207 207 207 207 205 203 204 205 204 204 204 203 205 207 206 207 209 211 210 207 206 207 209 211 209 207 207 207
196 198 200 202 203 206 207 207 208 208 208 207 208 209 208 207 206 205 205 203 203 204 204 204 205 204 205 206 207 207 209 211 211 209 208 207 209 211 211 209 208 208
197 199 201 202 204 206 207 208 209 210 210 208 208 209 209 208 206 204 205 205 203 203 204 204 205 205 206 207 209 209 208 210 211 210 209 208 208 211 213 212 210 209
198 199 201 202 203 205 207 208 210 211 211 210 209 209 209 209 207 204 204 205 204 204 205 205 205 206 207 207 209 210 209 209 210 211 211 210 209 211 214 215 213 210
199 199 200 201 203 205 207 208 209 210 211 211 210 209 209 209 208 206 204 205 205 205 205 205 205 207 208 208 208 210 211 210 210 211 211 212 211 211 214 218 217 214
199 199 199 201 202 204 206 208 208 209 210 210 209 208 208 209 210 208 206 205 206 206 206 207 207 208 209 209 208 209 210 211 211 211 212 213 213 212 214 218 221 219
197 198 198 199 201 204 205 206 207 207 207 208 209 209 208 207 209 210 209 207 207 207 208 209 210 211 211 211 210 209 209 211 212 212 212 213 214 214 214 216 221 224
194 195 196 197 199 202 203 203 203 204 205 207 208 208 208 207 208 210 211 210 209 209 210 212 213 213 213 212 212 212 210 210 212 213 212 212 213 214 214 214 219 225
192 192 194 195 196 199 200 200 200 201 203 205 206 206 206 207 208 209 210 212 211 211 213 216 217 216 214 213 214 214 213 212 212 213 212 212 212 213 213 213 215 221
192 191 193 194 194 196 197 196 197 200 202 204 204 204 205 206 207 207 209 211 212 213 215 217 219 219 217 215 215 216 216 214 212 214 214 213 213 212 212 212 212 215
193 192 193 193 192 192 193 195 198 201 203 203 203 203 204 206 208 207 208 210 212 214 216 218 221 222 220 217 217 217 217 216 214 214 216 218 217 214 212 212 211 212
195 194 193 192 191 191 192 196 199 201 202 203 204 205 205 207 208 208 209 211 212 213 217 221 224 225 223 220 219 218 219 217 215 214 216 220 221 218 216 215 213 212
195 193 192 192 192 193 195 198 200 200 201 201 204 207 208 207 209 212 213 214 214 214 219 224 227 227 225 223 220 219 219 218 216 214 215 219 221 220 220 220 218 213
196 194 194 194 194 195 198 199 200 200 199 200 203 207 209 209 211 215 218 219 218 217 219 224 227 227 227 225 222 219 217 216 215 213 215 219 221 220 220 222 224 219
198 197 196 196 197 199 200 199 199 200 200 201 204 208 211 213 213 216 218 219 220 219 218 222 225 226 227 227 224 220 217 215 213 211 214 219 221 222 221 221 225 225
200 200 200 200 200 200 201 200 200 202 202 203 207 210 212 215 215 217 219 218 220 221 220 221 223 225 226 226 225 222 218 215 213 210 214 218 219 221 223 222 225 227
201 203 202 202 202 201 202 202 202 204 205 205 209 211 213 216 217 219 221 221 221 222 222 221 223 224 225 225 225 224 220 215 211 211 216 219 219 221 224 226 227 226
Height
786 788 790 792 795 797 799 800 802 803 804 805 807 808 810 811 813 815 816 818 819 821 822 824 825 827 828 829 831 832 833 834 835 836 837 838 840 841 841 842 843 843
781 784 786 788 791 793 795 796 798 800 801 802 804 805 807 809 810 811 813 815 816 818 820 821 823 824 826 827 828 830 831 832 833 834 835 836 838 839 840 840 841 842
777 780 782 784 786 788 790 793 795 796 798 799 801 802 804 805 807 808 810 812 813 815 816 818 820 821 823 824 826 827 829 830 831 832 833 834 835 837 838 839 840 841
772 775 777 780 782 784 787 789 790 792 794 795 797 799 801 802 804 805 807 809 810 812 814 815 817 818 820 822 823 825 826 827 829 830 831 832 833 834 836 837 837 838
766 769 772 775 778 780 783 784 786 787 789 791 793 795 797 799 801 802 804 806 807 809 811 812 814 815 817 819 820 822 823 825 826 827 829 829 831 832 833 835 835 836
761 764 768 771 773 776 778 779 781 783 785 787 789 792 794 795 797 799 801 803 804 806 808 809 811 812 814 816 817 819 820 821 823 825 826 827 828 829 830 832 833 834
756 759 762 766 769 771 773 775 777 779 781 783 785 787 790 792 794 795 797 799 801 803 804 806 808 809 811 813 814 816 817 818 820 821 823 824 826 827 827 829 831 832
751 754 758 761 764 767 769 771 773 775 777 779 781 783 785 787 789 791 794 796 798 800 801 803 805 806 808 809 811 813 814 815 816 818 820 821 823 824 824 826 828 829
746 750 753 756 759 762 764 766 768 771 773 775 776 778 781 783 785 788 790 792 794 796 798 799 801 803 804 806 807 809 811 812 813 814 816 818 819 821 822 823 824 826
740 744 747 750 753 755 758 760 763 766 768 769 771 774 776 779 781 784 786 788 790 792 794 796 797 798 800 802 803 805 807 809 810 811 812 814 816 817 819 819 821 822
734 737 740 743 746 749 752 755 758 760 762 764 766 769 772 774 777 779 781 783 785 787 789 791 792 794 796 797 799 801 803 805 806 807 808 810 812 814 815 816 817 818
729 732 735 737 740 743 747 750 752 755 757 759 761 764 767 769 771 774 776 778 780 782 784 786 788 790 791 793 795 797 798 801 802 804 805 806 808 810 811 812 813 814
724 726 730 733 736 739 742 745 747 750 752 755 757 759 762 764 766 769 771 773 775 777 779 781 783 785 787 789 791 793 794 796 798 800 801 802 804 805 807 809 809 810
719 722 725 728 732 735 738 740 742 745 748 750 753 755 757 760 762 764 766 769 771 773 776 778 779 781 783 785 787 789 791 792 794 795 797 798 800 801 803 804 805 806
715 719 721 725 728 731 733 736 738 741 744 747 749 751 754 756 759 761 763 765 768 770 772 774 775 776 777 779 782 784 786 788 790 791 792 794 795 797 798 800 802 803
712 715 718 721 724 726 729 731 734 737 740 743 745 748 750 753 755 758 760 762 764 766 767 769 769 770 771 774 776 779 781 783 785 787 788 790 791 793 794 796 798 799
708 711 714 717 719 722 725 728 731 733 736 738 741 744 747 749 751 754 755 757 759 761 762 763 763 764 765 768 771 774 776 778 780 782 783 785 787 788 790 791 793 795
703 706 709 712 715 718 721 724 727 730 732 735 737 739 742 745 747 749 750 752 754 755 757 757 758 758 760 762 765 768 771 774 776 777 778 780 781 782 784 786 788 790
699 701 704 707 709 713 717 720 723 725 727 729 732 734 737 739 741 743 745 747 749 750 751 752 753 753 754 756 759 761 765 768 770 772 773 774 775 776 778 780 781 783
695 697 700 703 705 710 713 715 718 719 721 724 727 730 732 734 736 738 740 742 743 745 746 747 747 749 750 751 754 756 759 762 765 768 769 769 770 771 772 773 775 776
691 693 697 700 703 706 709 710 712 714 717 721 723 726 728 730 732 734 735 737 739 740 742 742 742 744 745 746 748 751 754 757 760 762 764 765 766 766 768 768 769 770
687 691 694 696 699 702 703 706 708 710 714 718 720 723 724 726 728 730 731 733 735 736 737 736 737 739 740 741 743 746 750 753 755 757 758 759 760 761 763 764 763 764
685 687 690 692 695 697 698 701 704 708 711 714 716 718 719 721 723 725 726 728 729 730 731 731 732 734 735 737 739 742 745 747 749 752 753 754 754 755 757 758 758 759
682 684 687 689 691 692 695 698 702 705 707 709 712 713 714 716 718 719 720 721 723 724 725 726 727 728 730 732 734 736 739 741 744 746 748 748 749 749 750 751 752 754
679 681 684 686 687 690 693 696 699 701 703 705 707 709 710 712 713 714 715 716 717 719 720 721 722 723 725 726 728 731 733 736 739 741 742 741 741 743 744 744 745 748
675 678 680 682 685 688 691 693 695 697 699 701 702 704 706 707 708 709 710 711 712 714 715 716 717 718 719 720 722 725 727 730 734 735 735 734 735 737 738 738 740 741